Location: Forst
(46.9333°N, 15.4333°E)
Time: 04:36:44
(UTC+00:00)

Cosmos 1603 - Pass Details

Date: 01 December 2020
Orbit: 831 x 859 km, 71.0° (Epoch: 18 January)

Event Time Altitude Azimuth Distance (km) Brightness Sun altitude
Rises 17:46:49 0° 218° (SW) 3,375 7.4 -25.8°
Reaches altitude 10° 17:49:18 10° 223° (SW) 2,442 6.7 -26.2°
Maximum altitude 17:54:48 56° 301° (WNW) 983 4.2 -27.1°
Enters shadow 17:56:49 37° 0° (N) 1,283 4.5 -27.5°
